Regional Weather Roundup
Issued by NWS

Home | Current Version | Previous Version | Text Only | Print | Product List | Glossary On
Versions: 1 2 3 4 5 6 7 8 9 10 11 12 13 14 15 16 17 18 19 20 21 22 23 24 25 26 27 28 29 30 31 32 33 34 35 36 37 38 39 40 41 42 43 44 45 46 47 48 49 50
000
ASUS43 KMPX 280401
RWRMN
WEATHER ROUNDUP FOR MINNESOTA
NATIONAL WEATHER SERVICE TWIN CITIES/CHANHASSEN MN
1000 PM CST MON FEB 27 2017


NOTE: "FAIR" INDICATES FEW OR NO CLOUDS BELOW 12,000 FEET WITH NO
SIGNIFICANT WEATHER AND/OR OBSTRUCTIONS TO VISIBILITY. N/A MEANS
CURRENT SKY AND/OR WEATHER CONDITIONS ARE NOT AVAILABLE.

MNZ060>063-068>070-280500-
   Twin Cities Metro

CITY           SKY/WX    TMP DP  RH WIND       PRES   REMARKS
TWIN CITIES    CLOUDY    36  26  67 SE12      29.86F
ST PAUL        CLOUDY    34  27  75 S7        29.88F WCI  28
CRYSTAL        MOCLDY    36  25  64 SE10      29.84F
BLAINE         CLOUDY    37  28  70 SE8       29.85S
LAKEVILLE        N/A     34  28  80 SE5       29.86F WCI  30
EDEN PRAIRIE   CLOUDY    35  27  72 SE8       29.84F WCI  29
SOUTH ST PAUL  CLOUDY    37  27  68 SE7       29.87F
LAKE ELMO      FAIR      36  28  75 SE6       29.88S
$$
MNZ001>005-007-008-013>017-022>024-027-028-280500-
   Northwest Minnesota

CITY           SKY/WX    TMP DP  RH WIND       PRES   REMARKS
BEMIDJI        CLOUDY    26  15  64 N8        29.83F WCI  17
HALLOCK        CLOUDY    16  10  79 N10       29.96R WCI   3
ROSEAU         FLURRIES  18  14  86 N8        29.93S WCI   7
WARROAD        LGT SNOW  19  16  86 N7        29.93S WCI  10
THIEF RVR FALL CLOUDY    20  16  84 N15       29.89S WCI   6
CROOKSTON      CLOUDY    21  18  86 N13       29.91S WCI   9
FOSSTON        CLOUDY    21  14  73 N8        29.86R WCI  12
DETROIT LAKES  CLOUDY    30  27  86 CALM      29.81S
MOORHEAD       CLOUDY    27  19  74 N16       29.86R WCI  14
PARK RAPIDS    CLOUDY    31  22  69 N7        29.79S WCI  24
MAHNOMEN       FAIR      24  17  72 N13       29.83S WCI  13
$$
MNZ006-009>011-018-025>026-280500-
   North Central Minnesota

CITY           SKY/WX    TMP DP  RH WIND       PRES   REMARKS
BAUDETTE       CLOUDY    21  16  81 N6        29.90R WCI  13
FLAG ISLAND    LGT SNOW  16  12  86 N13       29.94R WCI   2
INTL FALLS     FLURRIES  24  17  74 NE5       29.89S WCI  18
WASKISH        CLOUDY    25  16  68 NE8       29.88S WCI  16
BIG FORK       CLOUDY    28  18  64 NE5       29.85S WCI  23
LONGVILLE      CLOUDY    28  25  86 CALM      29.81S
GRAND RAPIDS   CLOUDY    31  24  75 SE7       29.84S WCI  24
CRANE LAKE     CLOUDY    21  16  79 CALM      29.91S
ORR            CLOUDY    27  16  63 CALM      29.85S
COOK           CLOUDY    27  19  74 CALM      29.87S
WALKER         CLOUDY    29  20  70 CALM      29.82S
$$
MNZ012-019>021-037-280500-
   Northeast Minnesota

CITY           SKY/WX    TMP DP  RH WIND       PRES   REMARKS
DULUTH         CLOUDY    27  24  89 E6        29.86S WCI  20
ELY            PTCLDY    27  21  80 SE3       29.87S
HIBBING        CLOUDY    27  23  85 SE8       29.85S WCI  19
EVELETH        CLOUDY    30  22  72 SE7       29.87S WCI  23
DULUTH HARBOR  CLOUDY    34  30  86 NE13      29.91S WCI  25
TWO HARBORS    CLOUDY    28  25  86 NE6       29.88F WCI  22
SILVER BAY     CLOUDY    27  27 100 CALM      29.89S
GRAND MARAIS     N/A     28  23  81 N3        29.95F
G MARAIS ARPRT CLOUDY    19  18  93 E3        29.89S FOG
$$
MNZ029>031-032-039>041-046>048-054>057-064-280500-
   West Central Minnesota

CITY           SKY/WX    TMP DP  RH WIND       PRES   REMARKS
FERGUS FALLS   CLOUDY    30  27  86 N6        29.83S WCI  24
WHEATON        MOCLDY    32  28  86 NW7       29.83R WCI  26
MORRIS         CLOUDY    32  28  86 SE5       29.78F WCI  27
ALEXANDRIA     CLOUDY    34  27  75 S10       29.79F WCI  26
ELBOW LAKE     MOCLDY    32  29  89 E8        29.78F WCI  25
WADENA         CLOUDY    28  25  86 SE6       29.78S WCI  22
GLENWOOD       MOCLDY    36  28  75 S9        29.80F
APPLETON       CLOUDY    37  28  70 SE5       29.79F
BENSON         CLOUDY    37  27  65 S9        29.82S
ORTONVILLE     CLOUDY    36  25  64 CALM      29.79R
MADISON        CLOUDY    37  30  75 SE6       29.78S
WILLMAR        CLOUDY    36  30  80 CALM      29.83S
$$
MNZ033>034-036-042>043-049>051-058-059-280500-
   Central Minnesota

CITY           SKY/WX    TMP DP  RH WIND       PRES   REMARKS
ST CLOUD       CLOUDY    35  25  66 S7        29.84R WCI  29
SAUK CENTRE    CLOUDY    33  28  79 S7        29.82R WCI  27
PAYNESVILLE    CLOUDY    35  28  75 W6        29.85R WCI  30
AITKIN         CLOUDY    37  21  52 S9        29.82R
PINE RIVER     CLOUDY    30  25  80 SE5       29.84S WCI  25
BRAINERD       CLOUDY    36  24  62 S14       29.82R
STAPLES        CLOUDY    32  25  74 CALM      29.80R
LONG PRAIRIE   CLOUDY    34  27  75 SE10      29.81S WCI  26
LITTLE FALLS   CLOUDY    36  23  60 S8        29.84R
LITCHFIELD     CLOUDY    36  28  75 CALM      29.84S
BUFFALO        CLOUDY    34  26  72 SE3       29.86F
MAPLE LAKE     CLOUDY    35  28  77 SE3       29.85F
HUTCHINSON     CLOUDY    34  30  86 E6        29.84F WCI  29
$$
MNZ037-044-045-052-053-280500-
   East Central Minnesota

CITY           SKY/WX    TMP DP  RH WIND       PRES   REMARKS
PRINCETON      CLOUDY    36  25  64 SE3       29.86R
MORA           CLOUDY    34  21  60 S6        29.87S WCI  29
CAMBRIDGE      CLOUDY    37  25  60 SE5       29.85R
RUSH CITY      CLOUDY    35  24  64 S7        29.86S WCI  29
MOOSE LAKE     CLOUDY    28  23  80 CALM      29.85S
HINCKLEY       CLOUDY    36  23  60 SE5       29.86S
CLOQUET        CLOUDY    27  23  86 CALM      29.86F
MCGREGOR       CLOUDY    32  27  80 NE5       29.86R WCI  27
$$
MNZ071>073-080-081-089-090-097-098-280500-
   Southwest Minnesota

CITY           SKY/WX    TMP DP  RH WIND       PRES   REMARKS
MONTEVIDEO     CLOUDY    36  28  75 SE3       29.82S
GRANITE FALLS  CLOUDY    37  31  81 SE8       29.80F
CANBY          CLOUDY    35  31  85 CALM      29.78S
MARSHALL       CLOUDY    36  30  79 S8        29.77F
REDWOOD FALLS  CLOUDY    35  28  75 SE8       29.80F WCI  29
OLIVIA         CLOUDY    34  28  80 SE8       29.80F WCI  27
PIPESTONE      CLEAR     36  28  75 SE8       29.73F
WINDOM         CLOUDY    34  30  86 E5        29.79F WCI  30
WORTHINGTON    PTCLDY    32  30  92 E5        29.78F WCI  27
JACKSON        PTCLDY    34  32  93 SE8       29.79F WCI  27
TRACY          CLOUDY    35  31  85 S8        29.77F WCI  28
SLAYTON        CLEAR     32  30  91 E6        29.77F WCI  27
$$
MNZ065>067-074>077-082>085-091>093-280500-
   South Central Minnesota

CITY           SKY/WX    TMP DP  RH WIND       PRES   REMARKS
MANKATO          N/A     37  31  78 SE10      29.83F
NEW ULM        CLOUDY    36  28  75 E5        29.82F
ST JAMES       CLOUDY    34  30  86 CALM      29.82F
FAIRMONT       CLOUDY    39  31  72 S14       29.80F
GLENCOE        CLOUDY    34  32  92 E8        29.83F WCI  27
FARIBAULT      CLOUDY    37  30  75 E6        29.86F
OWATONNA       DRIZZLE   36  30  80 SE10      29.86F
WASECA         CLOUDY    36  32  87 E12       29.86F
ALBERT LEA     CLOUDY    39  30  70 SE10      29.85F
$$
MNZ078>079-086>088-094>096-280500-
   Southeast Minnesota

CITY           SKY/WX    TMP DP  RH WIND       PRES   REMARKS
ROCHESTER      CLOUDY    38  31  76 S13       29.88S
RED WING       CLOUDY    37  27  65 E3        29.89F
STANTON        CLOUDY    38  30  71 SE5       29.85F
WINONA         CLOUDY    37  32  81 S3        29.92F
AUSTIN         CLOUDY    39  30  70 SE7       29.86F
PRESTON        CLOUDY    39  31  73 SE10      29.89F
$$
ABBREVIATIONS USED IN REMARKS
   TC - TEMPERATURES IN CELSIUS
  WCI - WIND CHILL INDEX
   HX - HEAT INDEX
  VSB - VISIBILITY
$$



USA.gov is the U.S. government's official web portal to all federal, state and local government web resources and services.